Date String (YYYY-MM-DD hh:mm:ss) UTC,Instrument flags,Ambient pressure (hPa),Sample flow (lpm),Bypass flow (lpm),Sample temperature (°C),Ambient temperature (°C),ASC tube jacket temperature (°C),LED temperature (°C),Box temperature (°C),Sample RH (%),Span deviation,Mass concentration (μg/m³),Mass concentration (μg/m³),Mass concentration (μg/m³)
DateTimeUTC,F1_M11,P_M11,Q1_M11,Q2_M11,T1_M11,T2_M11,T3_M11,T4_M11,T5_M11,U1_M11,ZSPAN_M11,X2_M11,X0_M11,X1_M11
2021-09-11 08:00:00,,0829.0,5.01,0.00,29.4,26.9,00.0,38.6,31.0,12.3,0002.5,0014.98,0026.85,0013.41
2021-09-11 08:01:00,,0829.0,4.99,0.00,29.4,27.3,00.0,38.6,31.1,12.2,0002.7,0015.02,0026.95,0013.46
2021-09-11 08:02:00,,0829.1,5.01,0.00,29.5,27.6,00.0,38.6,31.1,12.4,0002.6,0014.98,0025.95,0013.46
2021-09-11 08:03:00,,0829.1,4.98,0.00,29.5,27.9,00.0,38.6,31.2,12.0,0002.5,0014.91,0026.19,0013.42
2021-09-11 08:04:00,,0829.1,5.00,0.00,29.5,28.1,00.0,38.6,31.3,11.5,0002.6,0014.69,0026.24,0013.26
2021-09-11 08:05:00,,0829.1,5.01,0.00,29.5,28.3,00.0,38.6,31.3,11.6,0002.5,0014.51,0025.30,0013.11
2021-09-11 08:06:00,,0829.1,4.99,0.00,29.6,28.4,00.0,38.6,31.4,11.7,0002.2,0014.32,0024.35,0012.94
2021-09-11 08:07:00,,0829.1,5.01,0.00,29.6,28.5,00.0,38.6,31.4,11.5,0001.6,0014.09,0023.74,0012.78
2021-09-11 08:08:00,,0829.1,5.00,0.00,29.6,28.6,00.0,38.6,31.5,11.5,0001.4,0013.83,0023.43,0012.61
2021-09-11 08:09:00,,0829.0,5.00,0.00,29.7,28.7,00.0,38.7,31.5,11.5,0001.1,0013.63,0023.60,0012.46
2021-09-11 08:10:00,,0829.1,4.99,0.00,29.7,28.8,00.0,38.7,31.5,11.6,0000.9,0013.48,0023.35,0012.34
2021-09-11 08:11:00,,0829.1,5.00,0.00,29.8,28.9,00.0,38.7,31.6,11.6,0000.7,0013.36,0022.75,0012.23
2021-09-11 08:12:00,,0829.0,5.00,0.00,29.8,28.8,00.0,38.7,31.6,11.6,0000.6,0013.35,0022.39,0012.17
2021-09-11 08:13:00,,0829.0,5.01,0.00,29.7,27.3,00.0,38.7,31.3,11.6,0000.9,0013.30,0022.52,0012.12
2021-09-11 08:14:00,,0829.0,5.00,0.00,29.6,26.4,00.0,38.7,31.0,11.7,0001.3,0013.23,0021.90,0012.10
2021-09-11 08:15:00,,0829.0,5.00,0.00,29.5,26.6,00.0,38.7,31.0,11.7,0001.4,0013.30,0021.52,0012.17
2021-09-11 08:16:00,,0829.0,5.00,0.00,29.5,27.0,00.0,38.7,31.1,11.7,0001.3,0013.37,0021.81,0012.22
2021-09-11 08:17:00,,0829.0,4.99,0.00,29.5,27.3,00.0,38.6,31.1,11.7,0001.1,0013.46,0022.04,0012.27
2021-09-11 08:18:00,,0828.9,5.00,0.00,29.5,27.6,00.0,38.6,31.1,11.7,0001.0,0013.58,0022.69,0012.34
2021-09-11 08:19:00,,0828.9,5.01,0.00,29.5,27.9,00.0,38.6,31.2,11.7,0001.3,0013.69,0023.40,0012.39
2021-09-11 08:20:00,,0828.9,4.99,0.00,29.5,28.1,00.0,38.6,31.3,11.5,0001.6,0013.65,0023.15,0012.37
2021-09-11 08:21:00,,0828.9,5.00,0.00,29.5,28.3,00.0,38.6,31.3,11.2,0001.8,0013.49,0022.93,0012.26
2021-09-11 08:22:00,,0828.9,5.00,0.00,29.6,28.4,00.0,38.6,31.4,11.1,0002.3,0013.29,0022.59,0012.11
2021-09-11 08:23:00,,0828.9,5.00,0.00,29.6,28.5,00.0,38.6,31.4,11.0,0002.3,0013.03,0022.16,0011.94
2021-09-11 08:24:00,,0828.9,5.00,0.00,29.6,28.6,00.0,38.6,31.5,10.9,0002.1,0012.82,0021.51,0011.76
2021-09-11 08:25:00,,0828.9,5.01,0.00,29.7,28.7,00.0,38.7,31.5,10.9,0001.9,0012.62,0021.00,0011.55
2021-09-11 08:26:00,,0828.9,5.00,0.00,29.7,28.8,00.0,38.7,31.5,10.9,0001.9,0012.37,0021.06,0011.33
2021-09-11 08:27:00,,0828.9,4.99,0.00,29.8,28.8,00.0,38.7,31.6,10.8,0001.9,0012.07,0020.59,0011.12
2021-09-11 08:28:00,,0828.9,5.00,0.00,29.8,28.9,00.0,38.7,31.6,10.7,0002.2,0011.78,0019.87,0010.92
2021-09-11 08:29:00,,0828.8,5.00,0.00,29.8,28.9,00.0,38.8,31.6,10.7,0002.5,0011.48,0019.50,0010.68
2021-09-11 08:30:00,,0828.8,5.01,0.00,29.8,27.4,00.0,38.8,31.3,10.7,0002.0,0011.19,0018.21,0010.45
2021-09-11 08:31:00,,0828.8,4.99,0.00,29.6,26.4,00.0,38.7,31.0,10.8,0001.9,0010.99,0017.63,0010.28
2021-09-11 08:32:00,,0829.0,5.00,0.00,29.6,26.6,00.0,38.7,31.0,10.8,0001.6,0010.88,0017.24,0010.17
2021-09-11 08:33:00,,0829.2,5.00,0.00,29.5,27.0,00.0,38.7,31.1,10.9,0001.5,0010.82,0016.99,0010.11
2021-09-11 08:34:00,,0829.3,5.01,0.00,29.5,27.3,00.0,38.7,31.1,10.9,0001.3,0010.73,0016.78,0010.05
2021-09-11 08:35:00,,0829.1,4.99,0.00,29.5,27.7,00.0,38.6,31.2,11.0,0001.2,0010.70,0016.76,0010.02
2021-09-11 08:36:00,,0829.0,5.01,0.00,29.5,27.9,00.0,38.6,31.2,10.9,0001.4,0010.70,0016.79,0010.01
2021-09-11 08:37:00,,0828.9,5.00,0.00,29.6,28.1,00.0,38.6,31.3,10.9,0001.6,0010.68,0016.01,0010.02
2021-09-11 08:38:00,,0828.9,5.00,0.00,29.6,28.3,00.0,38.6,31.4,10.9,0001.7,0010.68,0015.52,0010.02
2021-09-11 08:39:00,,0828.9,5.01,0.00,29.6,28.4,00.0,38.6,31.4,11.4,0001.5,0010.70,0015.51,0010.03
2021-09-11 08:40:00,,0828.9,4.99,0.00,29.7,28.6,00.0,38.7,31.5,11.5,0001.4,0010.73,0015.34,0010.06
2021-09-11 08:41:00,,0828.9,5.00,0.00,29.7,28.7,00.0,38.7,31.5,11.4,0001.5,0010.78,0016.07,0010.11
2021-09-11 08:42:00,,0828.9,4.99,0.00,29.7,28.8,00.0,38.7,31.5,11.0,0001.4,0010.83,0016.21,0010.14
2021-09-11 08:43:00,,0828.9,5.00,0.00,29.8,28.8,00.0,38.7,31.6,10.9,0001.5,0010.83,0016.52,0010.15
2021-09-11 08:44:00,,0828.9,5.00,0.00,29.8,28.9,00.0,38.7,31.6,11.0,0001.6,0010.84,0016.67,0010.16
2021-09-11 08:45:00,,0828.9,4.99,0.00,29.8,28.9,00.0,38.8,31.6,11.0,0001.7,0010.89,0016.70,0010.21
2021-09-11 08:46:00,,0828.9,5.01,0.00,29.8,27.4,00.0,38.8,31.3,11.0,0001.6,0010.91,0016.91,0010.23
2021-09-11 08:47:00,,0828.9,5.01,0.00,29.6,26.4,00.0,38.7,31.0,11.1,0001.5,0010.89,0017.51,0010.25
2021-09-11 08:48:00,,0828.9,5.00,0.00,29.6,26.6,00.0,38.7,31.1,11.1,0001.2,0010.93,0018.70,0010.26
2021-09-11 08:49:00,,0828.8,4.99,0.00,29.5,27.0,00.0,38.7,31.1,11.1,0001.2,0010.94,0018.71,0010.28
2021-09-11 08:50:00,,0828.9,5.00,0.00,29.5,27.4,00.0,38.7,31.1,11.2,0001.3,0010.90,0018.60,0010.28
2021-09-11 08:51:00,,0828.8,5.00,0.00,29.5,27.7,00.0,38.7,31.2,11.2,0001.4,0010.89,0017.79,0010.28
2021-09-11 08:52:00,,0828.8,5.01,0.00,29.5,28.0,00.0,38.6,31.3,11.2,0001.6,0010.84,0017.07,0010.24
2021-09-11 08:53:00,,0828.9,5.00,0.00,29.6,28.2,00.0,38.7,31.3,11.2,0001.9,0010.78,0016.79,0010.22
2021-09-11 08:54:00,,0828.9,4.99,0.00,29.6,28.3,00.0,38.7,31.4,11.3,0002.0,0010.78,0016.65,0010.22
2021-09-11 08:55:00,,0828.8,5.00,0.00,29.6,28.5,00.0,38.7,31.4,11.2,0001.7,0010.78,0016.91,0010.22
2021-09-11 08:56:00,,0828.9,5.00,0.00,29.7,28.6,00.0,38.7,31.4,11.1,0001.7,0010.74,0016.86,0010.19
2021-09-11 08:57:00,,0828.9,5.00,0.00,29.7,28.7,00.0,38.7,31.5,11.1,0001.9,0010.73,0016.68,0010.19
2021-09-11 08:58:00,,0828.9,5.00,0.00,29.7,28.7,00.0,38.7,31.5,11.1,0001.8,0010.77,0016.33,0010.18
2021-09-11 08:59:00,,0828.9,5.00,0.00,29.8,28.8,00.0,38.7,31.6,11.0,0002.3,0010.73,0015.01,0010.17
